[[{"header":{"parameterUnit":"m.s-1","parameterCategory":1,"la1":30.2991,"la2":30.254,"lo1":-89.0895,"lo2":-89.0444,"dy":0.0017,"dx":0.0017,"nx":28,"ny":28,"refTime":"2024-12-03T03:00:00:Z","depth":0,"parameterNumber":2,"parameterNumberName":"U-component_of_WINDS"},"data":[0,0,0,0,0,0,0,0,0,0,0,0,0,0,0,0,0,0,0,0,0,0,0,0,0,0,0,0,0,0,0,0,0,0,0,0,0,0,0,0,0,0,0,0,0,0,0,0,0,0,0,0,0,0,0,0,0,0,-1.0065,-1.0066,0,-1.0093,-1.0093,-1.0093,-1.0108,-1.0108,-1.0108,-1.0108,-1.0137,-1.0138,-1.0139,0,0,0,0,0,0,0,0,0,0,0,0,0,-1.0027,-1.0027,-1.0065,-1.0066,-1.0066,-1.0093,-1.0093,-1.0094,-1.0108,-1.0108,-1.0108,-1.0108,-1.0137,-1.0138,-1.0139,0,0,0,0,0,0,0,0,0,0,0,0,0,-1.0048,-1.0027,-1.0065,-1.0076,-1.0078,-1.0093,-1.0093,-1.0094,-1.0108,-1.0108,-1.0108,-1.0108,-1.0137,-1.0138,-1.0139,-1.0145,0,0,-1.0142,-1.0143,0,0,0,0,0,0,0,0,-1.0046,-1.0049,-1.0074,-1.0076,-1.0077,-1.0097,-1.009,-1.0111,-1.0108,-1.0096,-1.0108,-1.0108,-1.0124,-1.0126,-1.0131,-1.0147,-1.0148,-1.0142,-1.0143,-1.0144,-1.0144,0,0,0,0,0,0,0,-1.0045,-1.0048,-1.0076,-1.0075,-1.0076,-1.008,-1.0083,-1.0094,-1.011,-1.0097,-1.0098,-1.0101,-1.0125,-1.013,-1.0132,-1.0148,-1.0142,-1.0143,-1.0144,-1.0145,-1.0172,-1.0172,0,0,0,0,0,0,-1.0042,-1.0047,-1.0075,-1.0077,-1.0061,-1.0081,-1.0084,-1.009,-1.011,-1.0112,-1.0101,-1.0102,-1.0128,-1.0131,-1.0133,-1.0142,-1.0144,-1.0145,-1.0145,-1.0172,-1.0172,-1.0172,0,0,0,0,0,0,-1.0041,-1.0044,-1.0074,-1.0062,-1.0066,-1.0082,-1.0088,-1.0091,-1.0096,-1.0113,-1.0116,-1.0104,-1.0128,-1.0131,-1.0142,-1.0144,-1.0145,-1.0146,-1.0172,-1.0172,-1.0172,-1.0161,0,0,0,0,0,0,-1.0039,-1.0044,-1.0046,-1.0062,-1.0067,-1.0082,-1.0088,-1.0092,-1.0098,-1.0099,-1.0116,-1.0119,-1.0128,-1.0141,-1.0143,-1.0145,-1.0147,-1.0172,-1.0172,-1.0172,-1.0161,-1.0161,-1.016,0,0,0,0,0,-1.0038,-1.0042,-1.0046,-1.0049,-1.007,-1.0082,-1.0085,-1.0096,-1.0098,-1.0101,-1.0112,-1.0118,-1.0143,-1.0142,-1.0145,-1.0147,-1.0172,-1.0172,-1.0172,-1.0161,-1.0161,-1.016,0,0,0,0,0,0,-1.0025,-1.0044,-1.0049,-1.0058,-1.0068,-1.0085,-1.0088,-1.0095,-1.0106,-1.0106,-1.012,-1.0123,-1.0133,-1.0141,-1.0139,-1.0155,-1.0158,-1.0159,-1.0149,-1.0148,-1.0148,-1.0146,-1.0148,0,0,0,0,0,-1.0023,-1.0031,-1.0048,-1.0054,-1.0059,-1.0073,-1.0079,-1.0086,-1.0098,-1.0103,-1.0114,-1.0126,-1.0136,-1.0143,-1.0153,-1.0163,-1.0167,-1.0166,-1.0165,-1.0165,-1.0165,-1.0171,-1.0171,-1.0172,-1.0172,-1.0172,0,0,-1.002,-1.0031,-1.0035,-1.0052,-1.0061,-1.007,-1.0077,-1.0085,-1.0092,-1.0104,-1.0115,-1.0124,-1.0138,-1.0148,-1.0153,-1.0155,-1.0166,-1.0165,-1.0164,-1.0165,-1.0172,-1.0171,-1.0171,-1.0172,-1.0172,-1.0172,0,0,-1.0017,-1.0026,-1.0033,-1.0042,-1.0056,-1.0065,-1.0067,-1.0083,-1.0089,-1.01,-1.011,-1.0118,-1.0136,-1.0146,-1.0153,-1.0155,-1.0162,-1.0159,-1.0155,-1.0161,-1.0161,-1.0161,-1.0162,-1.0163,-1.0159,-1.0159,-1.0159,0,-1.0011,-1.0024,-1.0035,-1.0044,-1.0051,-1.0063,-1.007,-1.0078,-1.0095,-1.01,-1.0102,-1.0125,-1.0135,-1.0148,-1.0149,-1.0154,-1.0157,-1.0156,-1.016,-1.016,-1.0161,-1.0162,-1.0162,-1.0158,-1.0158,-1.0159,-1.0159,0,-1.0016,-1.0025,-1.0029,-1.0044,-1.0052,-1.006,-1.0073,-1.008,-1.0087,-1.0096,-1.0108,-1.0121,-1.0134,-1.0138,-1.0145,-1.0152,-1.0153,-1.0157,-1.0161,-1.016,-1.0161,-1.0162,-1.0158,-1.0158,-1.0158,-1.0158,0,0,-1.0005,-1.0028,-1.0029,-1.0037,-1.0053,-1.0061,-1.0069,-1.0083,-1.0088,-1.01,-1.0108,-1.0123,-1.0127,-1.0135,-1.0144,-1.0149,-1.0151,-1.0153,-1.0154,-1.0152,-1.016,-1.0157,-1.0157,-1.0156,-1.0156,-1.0156,-1.0159,0,-1.0006,-1.0021,-1.0032,-1.0043,-1.0052,-1.0064,-1.0071,-1.0083,-1.0092,-1.0101,-1.0112,-1.0122,-1.0127,-1.0132,-1.0138,-1.0149,-1.0153,-1.0149,-1.0164,-1.0164,-1.0159,-1.0158,-1.0154,-1.0157,-1.016,-1.016,-1.016,0,-1.0008,-1.0019,-1.0031,-1.0047,-1.0051,-1.0058,-1.0071,-1.008,-1.0093,-1.01,-1.0109,-1.0118,-1.0129,-1.0131,-1.0146,-1.0144,-1.015,-1.0157,-1.0157,-1.0159,-1.0162,-1.016,-1.0158,-1.0158,-1.0161,-1.0161,-1.0161,0,-0.9999,-1.0017,-1.0027,-1.0033,-1.0052,-1.0056,-1.0065,-1.0078,-1.0086,-1.0098,-1.0103,-1.0116,-1.0123,-1.0133,-1.0146,-1.0147,-1.016,-1.0163,-1.0166,-1.0165,-1.0168,-1.0167,-1.0167,-1.0172,-1.0172,-1.0172,-1.0172,0,-0.9998,-1.0005,-1.0023,-1.0029,-1.0038,-1.0051,-1.0059,-1.0069,-1.0081,-1.0089,-1.01,-1.0108,-1.0124,-1.0134,-1.0144,-1.0155,-1.0158,-1.0164,-1.0167,-1.0163,-1.0163,-1.0168,-1.0168,-1.0172,-1.0172,-1.0172,-1.0172,0,-0.999,-1.0002,-1.0014,-1.0031,-1.0036,-1.0041,-1.0056,-1.0063,-1.0073,-1.0084,-1.0087,-1.0103,-1.0116,-1.0129,-1.0146,-1.0153,-1.0164,-1.0167,-1.0159,-1.016,-1.0162,-1.0162,-1.0165,-1.0166,-1.017,-1.017,-1.017,0,-0.9988,-0.9994,-1.0012,-1.0018,-1.0026,-1.0036,-1.0044,-1.0058,-1.0065,-1.0082,-1.0086,-1.01,-1.0111,-1.0131,-1.0144,-1.0158,-1.0162,-1.0162,-1.0164,-1.016,-1.0162,-1.0162,-1.0162,-1.0161,-1.0161,-1.0161,-1.0161,0,-0.9984,-0.999,-1.0001,-1.0013,-1.0022,-1.0033,-1.0044,-1.0049,-1.0065,-1.0073,-1.0086,-1.0095,-1.0113,-1.0126,-1.0141,-1.0151,-1.0159,-1.016,-1.0162,-1.0158,-1.0153,-1.0156,-1.0157,-1.016,-1.016,-1.016,-1.016,-1.016,-0.998,-0.9985,-0.9999,-1.001,-1.002,-1.0031,-1.0038,-1.0049,-1.006,-1.0075,-1.0083,-1.0096,-1.011,-1.0131,-1.0141,-1.0151,-1.0154,-1.0156,-1.0156,-1.0156,-1.0155,-1.0151,-1.0154,-1.0154,-1.0154,-1.0154,-1.0154,0,-0.9976,-0.9986,-0.9996,-1.0012,-1.0021,-1.0027,-1.0041,-1.0048,-1.0059,-1.0072,-1.0083,-1.0098,-1.0111,-1.0126,-1.014,-1.0146,-1.015,-1.0149,-1.0149,-1.0151,-1.0152,-1.015,-1.0146,-1.0146,-1.0146,-1.0146,-1.0146,-1.0146,-0.9976,-0.9986,-0.9994,-1.001,-1.0019,-1.0032,-1.0039,-1.0049,-1.0059,-1.0075,-1.0086,-1.0096,-1.0109,-1.0125,-1.0138,-1.0142,-1.0147,-1.0145,-1.015,-1.015,-1.0151,-1.0152,-1.015,-1.0146,-1.0146,-1.0148,-1.0148,-1.0148]},{"header":{"parameterUnit":"m.s-1","parameterCategory":1,"la1":30.2991,"la2":30.254,"lo1":-89.0895,"lo2":-89.0444,"dy":0.0017,"dx":0.0017,"nx":28,"ny":28,"refTime":"2024-12-03T03:00:00:Z","depth":0,"parameterNumber":3,"parameterNumberName":"V-component_of_WINDS"},"data":[0,0,0,0,0,0,0,0,0,0,0,0,0,0,0,0,0,0,0,0,0,0,0,0,0,0,0,0,0,0,0,0,0,0,0,0,0,0,0,0,0,0,0,0,0,0,0,0,0,0,0,0,0,0,0,0,0,0,4.8845,4.8845,0,4.8836,4.8836,4.8836,4.879,4.8789,4.8788,4.8787,4.8779,4.8779,4.878,0,0,0,0,0,0,0,0,0,0,0,0,0,4.8825,4.8825,4.8845,4.8845,4.8845,4.8836,4.8836,4.8836,4.8791,4.8789,4.8788,4.8787,4.8778,4.8779,4.878,0,0,0,0,0,0,0,0,0,0,0,0,0,4.8826,4.8825,4.8846,4.8821,4.8819,4.8836,4.8836,4.8836,4.8791,4.8789,4.8788,4.8786,4.8778,4.8779,4.878,4.882,0,0,4.8784,4.8784,0,0,0,0,0,0,0,0,4.8826,4.8827,4.8825,4.8823,4.8821,4.8813,4.8825,4.8831,4.8791,4.8802,4.8787,4.8785,4.8791,4.8791,4.8793,4.882,4.8819,4.8784,4.8785,4.8785,4.8785,0,0,0,0,0,0,0,4.8826,4.8827,4.8842,4.8825,4.8822,4.8811,4.881,4.8826,4.8806,4.8801,4.8797,4.8797,4.879,4.8792,4.8793,4.8819,4.8784,4.8785,4.8786,4.8786,4.8877,4.8879,0,0,0,0,0,0,4.8829,4.8828,4.8842,4.8842,4.882,4.8813,4.8811,4.8817,4.8805,4.8802,4.8798,4.8795,4.8791,4.8791,4.8792,4.8837,4.8785,4.8786,4.8787,4.8876,4.8878,4.8879,0,0,0,0,0,0,4.8829,4.8831,4.8842,4.8834,4.8834,4.8815,4.8822,4.8818,4.882,4.8804,4.88,4.8804,4.879,4.879,4.8813,4.8836,4.8787,4.8788,4.8873,4.8876,4.8879,4.8928,0,0,0,0,0,0,4.8829,4.8831,4.8846,4.8834,4.8835,4.8864,4.8823,4.8819,4.8822,4.8817,4.8808,4.8805,4.8788,4.8812,4.8814,4.8837,4.8789,4.8871,4.8875,4.8878,4.8924,4.8932,4.8939,0,0,0,0,0,4.8828,4.8861,4.8847,4.8849,4.8853,4.8865,4.8865,4.8845,4.8824,4.8839,4.8828,4.8805,4.8834,4.8814,4.8817,4.884,4.887,4.8874,4.8877,4.8921,4.8931,4.8939,0,0,0,0,0,0,4.8876,4.8859,4.8843,4.8873,4.8871,4.8857,4.8875,4.8856,4.886,4.8855,4.8831,4.8829,4.8855,4.885,4.8829,4.8878,4.8848,4.8852,4.888,4.8889,4.8896,4.8896,4.879,0,0,0,0,0,4.889,4.8901,4.8885,4.8913,4.8913,4.8894,4.8899,4.8884,4.888,4.8879,4.887,4.8869,4.8877,4.8883,4.889,4.8924,4.8921,4.8941,4.8949,4.8955,4.8959,4.8976,4.8985,4.8892,4.8892,4.8892,0,0,4.8919,4.8911,4.8919,4.8922,4.8919,4.8931,4.8894,4.8908,4.8917,4.8882,4.8902,4.8896,4.8892,4.8921,4.8933,4.8917,4.8984,4.896,4.8964,4.8965,4.8981,4.899,4.8997,4.8895,4.8894,4.8894,0,0,4.8977,4.8973,4.8995,4.8992,4.8987,4.8975,4.898,4.897,4.8964,4.8984,4.8958,4.8968,4.8983,4.8981,4.8983,4.9041,4.902,4.9044,4.9081,4.9099,4.9106,4.9112,4.9133,4.914,4.9048,4.9049,4.9049,0,4.9014,4.9031,4.9009,4.9025,4.9027,4.8995,4.9018,4.9016,4.9014,4.9016,4.8999,4.9017,4.9012,4.904,4.9054,4.9056,4.9062,4.9045,4.9107,4.9113,4.9118,4.9137,4.9145,4.9051,4.9051,4.9051,4.905,0,4.9075,4.9088,4.9106,4.9105,4.9109,4.9128,4.9109,4.9117,4.9101,4.9091,4.9112,4.9105,4.911,4.9116,4.9101,4.9141,4.9132,4.9111,4.908,4.913,4.9148,4.9155,4.9055,4.9054,4.9054,4.9053,0,0,4.9163,4.9149,4.9156,4.9155,4.9147,4.9157,4.9175,4.9179,4.9185,4.9185,4.92,4.9213,4.9194,4.9195,4.918,4.9196,4.9242,4.9173,4.9172,4.9185,4.9285,4.93,4.9309,4.9228,4.923,4.9231,4.9285,0,4.9218,4.9248,4.9229,4.9261,4.9272,4.9243,4.9258,4.9255,4.9246,4.9255,4.9245,4.9254,4.9229,4.9229,4.9243,4.9233,4.9261,4.9229,4.9241,4.9242,4.9242,4.9318,4.9334,4.9386,4.9292,4.9293,4.9294,0,4.9287,4.9289,4.9323,4.9313,4.9317,4.9331,4.9333,4.9342,4.9338,4.933,4.9332,4.9313,4.933,4.9301,4.9324,4.9302,4.9306,4.9302,4.9304,4.9304,4.927,4.9319,4.9402,4.941,4.9305,4.9304,4.9303,0,4.9346,4.9358,4.938,4.938,4.9369,4.9379,4.9376,4.937,4.9374,4.9377,4.9379,4.9384,4.9386,4.939,4.9373,4.9353,4.9398,4.9367,4.9392,4.9393,4.9402,4.9402,4.9486,4.9407,4.9407,4.9406,4.9406,0,4.941,4.9431,4.9406,4.9419,4.9443,4.9421,4.9444,4.9438,4.9433,4.9445,4.942,4.9431,4.9408,4.9417,4.9404,4.9425,4.9427,4.9421,4.9417,4.9423,4.9423,4.9424,4.942,4.9408,4.9408,4.9408,4.9407,0,4.948,4.9464,4.9485,4.9473,4.9471,4.9489,4.9478,4.949,4.948,4.9494,4.9497,4.948,4.949,4.9473,4.9481,4.9472,4.9501,4.9492,4.9502,4.9499,4.9525,4.9522,4.9612,4.9623,4.9537,4.9538,4.9539,0,4.9521,4.9537,4.9527,4.9532,4.953,4.9539,4.9543,4.9522,4.9527,4.9524,4.9537,4.9544,4.9548,4.9565,4.9554,4.9559,4.955,4.9581,4.955,4.9556,4.955,4.9548,4.955,4.9587,4.9588,4.9589,4.959,0,4.9596,4.9587,4.9593,4.9596,4.9601,4.9603,4.9603,4.961,4.9588,4.9595,4.9604,4.9607,4.9615,4.9622,4.9625,4.9621,4.9602,4.9599,4.9605,4.9611,4.9616,4.9613,4.9518,4.9597,4.9596,4.9596,4.9595,4.9595,4.9652,4.9664,4.9659,4.9667,4.9665,4.9665,4.9675,4.9666,4.9673,4.9677,4.9665,4.9677,4.9673,4.9675,4.9673,4.9683,4.9669,4.9678,4.968,4.9682,4.9686,4.9615,4.9683,4.9683,4.9683,4.9683,4.9682,0,4.9725,4.972,4.9727,4.9728,4.9734,4.9715,4.9714,4.972,4.9731,4.9729,4.9734,4.9744,4.9752,4.9741,4.9747,4.9756,4.9747,4.9758,4.9757,4.9756,4.9698,4.9692,4.9765,4.9765,4.9765,4.9765,4.9765,4.9765,4.9763,4.9783,4.9774,4.9793,4.9787,4.9799,4.98,4.98,4.9798,4.9811,4.9817,4.981,4.9804,4.9809,4.9815,4.9812,4.9815,4.9829,4.9823,4.9768,4.976,4.9753,4.9747,4.983,4.983,4.9879,4.988,4.988]}]]